[Date Prev][Date Next][Thread Prev][Thread Next] - [Date Index][Thread Index][Author Index]
ISS Keps - 09/April/2001
- Subject: [sarex] ISS Keps - 09/April/2001
- From: "Neil Toombes" <neil.toombes@xxxxxxxxxxxx>
- Date: Tue, 10 Apr 2001 18:51:14 +0100
ISS
1 25544U 98067A 01099.82633102 .00111422 00000-0 13228-2 0 8532
2 25544 51.5496 73.2356 0012071 262.5402 121.3376 15.60242032136402
Regards
Neil Toombes
Basingstoke, England
Email:- neil@toombes.co.uk
ICQ#:- 3418660
----
Via the sarex mailing list at AMSAT.ORG courtesy of AMSAT-NA.
To unsubscribe, send "unsubscribe sarex" to Majordomo@amsat.org
AMSAT Home